Regional Weather Roundup
Issued by NWS

Home | Current Version | Previous Version | Text Only | Print | Product List | Glossary Off
Versions: 1 2 3 4 5 6 7 8 9 10 11 12 13 14 15 16 17 18 19 20 21 22 23 24 25 26 27 28 29 30 31 32 33 34 35 36 37 38 39 40 41 42 43 44 45 46 47 48 49 50

000
ASUS43 KBIS 071502
RWRND

NORTH DAKOTA REGIONAL WEATHER ROUNDUP
NATIONAL WEATHER SERVICE BISMARCK ND
900 AM CST SUN FEB 07 2016

NOTE: "FAIR" INDICATES FEW OR NO CLOUDS BELOW 12,000 FEET WITH NO
SIGNIFICANT WEATHER AND/OR OBSTRUCTIONS TO VISIBILITY.


NDZ001>003-009>011-017-071600-
NORTHWEST NORTH DAKOTA

CITY           SKY/WX    TMP DP  RH WIND       PRES   REMARKS
WILLISTON      CLOUDY    31  22  69 NW33G44   30.02R WCI  15
MINOT          FLURRIES  31  17  56 NW38G47   29.80R WCI  15
$$

NDZ018>021-031>035-040>046-071600-
SOUTHWEST NORTH DAKOTA

CITY           SKY/WX    TMP DP  RH WIND       PRES   REMARKS
BISMARCK       CLOUDY    35  23  61 NW29G51   29.82R
DICKINSON      FLURRIES  29  20  69 NW31G47   29.94R WCI  13
GARRISON         N/A     29  21  72 NW43G56   29.80R WCI  11
HETTINGER ARPT CLOUDY    30  19  63 NW36G51   29.98R WCI  14
$$

NDZ004>008-012>016-024-026-027-054-071600-
NORTHEAST NORTH DAKOTA

CITY           SKY/WX    TMP DP  RH WIND       PRES   REMARKS
GRAND FORKS    LGT SNOW  36  30  79 NW18      29.54R
GRND FRKS AFB  LGT RAIN  35  31  84 NW15G23   29.55R
DEVILS LAKE    LGT RAIN  33  31  92 NW30      29.60R WCI  19
$$

NDZ022-023-025-028>030-036>039-047>053-071600-
SOUTHEAST NORTH DAKOTA

CITY           SKY/WX    TMP DP  RH WIND       PRES   REMARKS
FARGO          CLOUDY    36  28  73 W24G31    29.60S
JAMESTOWN      FLURRIES  33  28  81 NW24G32   29.66R
$$




USA.gov is the U.S. government's official web portal to all federal, state and local government web resources and services.